Regional Weather Roundup
Issued by NWS

Home | Current Version | Previous Version | Text Only | Print | Product List | Glossary On
Versions: 1 2 3 4 5 6 7 8 9 10 11 12 13 14 15 16 17 18 19 20 21 22 23 24 25 26 27 28 29 30 31 32 33 34 35 36 37 38 39 40 41 42 43 44 45 46 47 48 49 50
000
ASUS43 KDMX 242301
RWRIA

WEATHER ROUNDUP FOR IOWA
NATIONAL WEATHER SERVICE DES MOINES IA
600 PM CDT FRI MAR 24 2017

NOTE: "FAIR" INDICATES FEW OR NO CLOUDS BELOW 12,000 FEET WITH NO
SIGNIFICANT WEATHER AND/OR OBSTRUCTIONS TO VISIBILITY.

* - THESE STATIONS ARE NOT NWS STATIONS...THUS NOT UNDER NWS
QUALITY CONTROL.  THEY ALSO DO NOT REPORT WEATHER SUCH
AS PRECIPITATION OR FOG.

IAZ001>003-012>014-020>022-031>034-043>046-250000-
   NORTHWEST IOWA

CITY           SKY/WX    TMP DP  RH WIND       PRES   REMARKS
CARROLL *      MIX PCPN  41  41 100 NE14G20   30.00R
CHEROKEE *     CLOUDY    42  39  91 N16       30.02S
LE MARS *      CLOUDY    43  39  87 N12G21    30.04S
ORANGE CITY *  CLOUDY    43  39  87 NE10G18   30.03S
SHELDON *      CLOUDY    41  41 100 NE20      30.04R
SIOUX CITY     CLOUDY    43  39  86 NE15      30.03R
SPENCER        CLOUDY    42  39  89 NE18      30.05R
STORM LAKE *   CLOUDY    41  39  93 N25       29.99R
$$

IAZ055>058-069>071-079>083-090>094-250000-
   SOUTHWEST IOWA

CITY           SKY/WX    TMP DP  RH WIND       PRES   REMARKS
ATLANTIC *     RAIN      43  43 100 NE17G23   29.96S
AUDUBON *      LGT RAIN  43  39  87 N7        29.99R
CLARINDA *     CLOUDY    50  50 100 NE15      29.93S FOG
COUNCIL BLFS * RAIN      43  43 100 N14G20    29.97R
CRESTON *      LGT RAIN  48  48 100 NE13      29.94S
HARLAN  *      HVY RAIN  43  43 100 NE16      30.01S
LAMONI         LGT RAIN  55  54  96 E6        29.90S FOG
RED OAK *      LGT RAIN  46  45  93 N15       29.94S
SHENANDOAH *   LGT RAIN  48  46  93 N18       29.92S
$$

IAZ047>049-059>061-072>074-084-250000-
   CENTRAL IOWA

CITY           SKY/WX    TMP DP  RH WIND       PRES   REMARKS
AMES           CLOUDY    45  44  97 NE10      29.96S
ANKENY *       LGT RAIN  46  45  93 NE7G14    29.97S
BOONE *        MIX PCPN  43  43 100 N14       29.96S
CHARITON *     LGT RAIN  52  52 100 NE8       29.91F VSB 3/4
DES MOINES     LGT RAIN  49  46  90 NE9       29.96R FOG
GRINNELL*      DRIZZLE   48  46  93 N6        29.97R
MARSHALLTOWN   LGT RAIN  46  43  89 NE15      29.96R FOG
NEWTON *       CLOUDY    48  46  93 N10       29.95R FOG
PELLA *        RAIN      51  51  97 N5        29.95S
PERRY *        LGT RAIN  44  43  95 N9        29.98R
$$

IAZ004>006-015-016-023>025-035-036-250000-
   NORTH CENTRAL IOWA

CITY           SKY/WX    TMP DP  RH WIND       PRES   REMARKS
ALGONA *       CLOUDY    41  41 100 NE22      30.03R
CLARION *      CLOUDY    41  41 100 NE15G23   30.00R
ESTHERVILLE    CLOUDY    41  40  96 NE14      30.04S
FORT DODGE *   CLOUDY    41  37  87 N12G18    30.01R
MASON CITY     CLOUDY    41  38  89 N15       30.02R
FOREST CITY *  CLOUDY    39  39 100 NE12G17   30.03R WCI  32
WEBSTER CITY * CLOUDY    43  41  93 NE15G22   29.98R
IOWA FALLS *   CLOUDY    44  40  86 N15       30.00R
$$

IAZ007>011-017>019-026>030-037>042-050>054-066-250000-
   NORTHEAST IOWA

CITY           SKY/WX    TMP DP  RH WIND       PRES   REMARKS
CEDAR RAPIDS   CLOUDY    53  53 100 N3        29.91F FOG
CHARLES CITY * LGT RAIN  41  41 100 NE15      30.01R
CLINTON *      LGT RAIN  61  52  72 N13       29.92F
DECORAH *      CLOUDY    41  39  93 N10G17    30.01R
DUBUQUE        LGT RAIN  53  51  93 N9        29.94F FOG
MONTICELLO *   LGT RAIN  55  54  94 CALM      29.94F
OELWEIN *      CLOUDY    45  43  93 NE14      29.97F
WATERLOO       CLOUDY    44  40  85 N12       29.98R
$$

IAZ064-065-067-068-078-250000-
   EAST CENTRAL IOWA

CITY           SKY/WX    TMP DP  RH WIND       PRES   REMARKS
DAVENPORT      CLOUDY    60  51  72 NW12      29.92F
IOWA CITY      CLOUDY    56  54  93 W6        29.95R FOG
MUSCATINE *    CLOUDY    59  54  82 SW7       29.95R
QUAD CITIES    CLOUDY    64  49  57 W13       29.91F
$$

IAZ062-063-075>077-085>089-095>099-250000-
   SOUTHEAST IOWA

CITY           SKY/WX    TMP DP  RH WIND       PRES   REMARKS
BURLINGTON     LGT RAIN  59  55  87 W8        29.95R
FAIRFIELD *    PTSUNNY   57  54  88 SW7       29.95R
FORT MADISON * LGT RAIN  57  52  82 SW7       29.98R
KEOKUK *       RAIN      59  57  94 SW9       29.97R
OSKALOOSA *    DRIZZLE   55  54  95 NW6       29.94S
CENTERVILLE *  LGT RAIN  54  54 100 CALM      29.94S
OTTUMWA        LGT RAIN  57  57 100 CALM      29.93R FOG
WASHINGTON *   CLOUDY    55  55 100 SW6       29.96R
$$

ABBREVIATIONS USED IN REMARKS
   TC - TEMPERATURES IN CELSIUS
  WCI - WIND CHILL INDEX
   HX - HEAT INDEX
  VSB - VISIBILITY
$$





USA.gov is the U.S. government's official web portal to all federal, state and local government web resources and services.